Location: Bakhuizen
(52.8696°N, 5.4575°E)
Time: 07:59:55
(UTC+00:00)

USA 305 - Pass Details

Date: 11 May 2021
Orbit: 567 x 573 km, 54.0° (Epoch: 07 May)

Event Time Altitude Azimuth Distance (km) Brightness Sun altitude
Rises 22:00:53 0° 287° (WNW) 2,776 7.0 -16.2°
Reaches altitude 10° 22:03:34 10° 271° (W) 1,875 5.8 -16.3°
Maximum altitude 22:06:43 20° 223° (SW) 1,335 4.5 -16.5°
Enters shadow 22:07:27 19° 209° (SSW) 1,369 4.5 -16.5°
